Weather History for K9V9 - October, 2013

Change the Weather History Date:

Thursday, October 3, 2013

  Actual Average Record
Temperature  
Mean Temperature 52 °F -  
Max Temperature 55 °F 66 °F 88 °F (2011)
Min Temperature 48 °F 40 °F 31 °F (2014)
Degree Days  
Heating Degree Days 14    
Growing Degree Days 2 (Base 50)    
Moisture  
Dew Point 49 °F    
Average Humidity 90    
Maximum Humidity 94    
Minimum Humidity 86    
Precipitation  
Precipitation 0.70 in - - ()
Sea Level Pressure  
Sea Level Pressure 29.89 in    
Wind  
Wind Speed 11 mph (NE)    
Max Wind Speed 20 mph    
Max Gust Speed 31 mph    
Averages and records for this station are not official NWS values.
T = Trace of Precipitation, MM = Missing Value Source: NWS Daily Summary

Daily Weather History Graph

Daily Weather History Graph

Search for Another Location

Airport or City:

Trip Planner

Search our weather history database for the weather conditions in past years. The results will help you decide how hot, cold, wet, or windy it might be!

Date:

Astronomy

Oct. 03, 2013 Rise Set
Actual Time 7:37 AM CDT 7:14 PM CDT
Civil Twilight 7:08 AM CDT 7:42 PM CDT
Nautical Twilight 6:35 AM CDT 8:15 PM CDT
Astronomical Twilight 6:01 AM CDT 8:49 PM CDT
Moon 6:10 AM CDT (10/3) 6:24 PM CDT (10/3)
Length of Visible Light 12h 33m
Length of Day
11h 36m
Waning Crescent, 2% of the Moon is Illuminated
Oct 3
Waning Crescent
Oct 4
New
Oct 11
First Quarter
Oct 18
Full
Oct 26
Last Quarter

Hourly Weather History & Observations

Time (CDT) Temp. Dew Point Humidity Pressure Visibility Wind Dir Wind Speed Gust Speed Precip Events Conditions
12:52 AM 51.1 °F 46.9 °F 86% 29.87 in - NNE 13.8 mph - N/A   Unknown
1:52 AM 50.0 °F 46.0 °F 86% 29.87 in - NE 8.1 mph - N/A   Unknown
2:52 AM 50.0 °F 46.9 °F 89% 29.88 in - NNE 5.8 mph - N/A   Unknown
3:52 AM 51.1 °F 48.0 °F 89% 29.86 in - NNE 5.8 mph - N/A   Unknown
4:52 AM 51.1 °F 48.0 °F 89% 29.85 in - NNE 5.8 mph - N/A   Unknown
5:52 AM 51.1 °F 48.0 °F 89% 29.85 in - ENE 6.9 mph - N/A   Unknown
6:52 AM 51.1 °F 48.0 °F 89% 29.84 in - ENE 9.2 mph - N/A   Unknown
7:52 AM 52.0 °F 48.0 °F 86% 29.86 in - NNE 10.4 mph - N/A   Unknown
8:52 AM 50.0 °F 48.0 °F 93% 29.91 in - North 16.1 mph 26.5 mph 0.01 in   Unknown
9:07 AM 50.0 °F 48.2 °F 94% 29.90 in - NE 16.1 mph - 0.05 in   Unknown
9:20 AM 48.2 °F 46.4 °F 93% 29.87 in - ENE 19.6 mph 27.6 mph 0.19 in   Unknown
9:52 AM 50.0 °F 46.9 °F 89% 29.89 in - ENE 15.0 mph - 0.32 in   Unknown
10:52 AM 50.0 °F 48.0 °F 93% 29.90 in - ENE 11.5 mph - 0.23 in   Unknown
11:52 AM 51.1 °F 48.9 °F 92% 29.88 in - ENE 11.5 mph - 0.10 in   Unknown
12:52 PM 52.0 °F 48.9 °F 89% 29.88 in - NE 10.4 mph - 0.02 in   Unknown
1:52 PM 53.1 °F 50.0 °F 89% 29.88 in - ENE 9.2 mph - N/A   Unknown
2:52 PM 55.0 °F 52.0 °F 89% 29.87 in - ENE 9.2 mph - N/A   Unknown
3:52 PM 54.0 °F 51.1 °F 90% 29.88 in - NE 10.4 mph - N/A   Unknown
4:52 PM 54.0 °F 51.1 °F 90% 29.89 in - NE 13.8 mph - N/A   Unknown
5:52 PM 53.1 °F 51.1 °F 93% 29.90 in - NE 10.4 mph - N/A   Unknown
6:52 PM 53.1 °F 51.1 °F 93% 29.91 in - NE 13.8 mph - N/A   Unknown
7:52 PM 53.1 °F 51.1 °F 93% 29.92 in - NE 17.3 mph 21.9 mph N/A   Unknown
8:52 PM 52.0 °F 50.0 °F 93% 29.95 in - NE 12.7 mph - 0.01 in   Unknown
9:52 PM 52.0 °F 50.0 °F 93% 29.94 in - NE 16.1 mph 25.3 mph N/A   Unknown
11:52 PM 51.1 °F 48.9 °F 92% 29.90 in - ENE 19.6 mph 31.1 mph 0.01 in   Unknown